Time,TemperatureF,DewpointF,PressureIn,WindDirection,WindDirectionDegrees,WindSpeedMPH,WindSpeedGustMPH,Humidity,HourlyPrecipIn,Conditions,Clouds,dailyrainin,SoftwareType,DateUTC
2013-08-12 00:00:00,64.1,59.8,29.99,WSW,245,0.0,0.0,86,0.00,,,0.00,VWS V14.01,2013-08-12 05:00:00,
2013-08-12 00:05:00,64.2,60.3,29.99,WSW,245,0.0,0.0,87,0.00,,,0.00,VWS V14.01,2013-08-12 05:05:00,
2013-08-12 00:10:00,64.2,60.3,29.99,WSW,245,0.0,0.0,87,0.00,,,0.00,VWS V14.01,2013-08-12 05:10:00,
2013-08-12 00:16:00,64.1,60.2,29.99,WSW,245,0.0,0.0,87,0.00,,,0.00,VWS V14.01,2013-08-12 05:16:00,
2013-08-12 00:21:00,64.1,60.2,29.99,WSW,245,0.0,0.0,87,0.00,,,0.00,VWS V14.01,2013-08-12 05:21:00,
2013-08-12 00:26:00,64.1,60.5,29.99,WSW,245,0.0,0.0,88,0.00,,,0.00,VWS V14.01,2013-08-12 05:26:00,
2013-08-12 00:30:00,64.2,60.6,29.99,WSW,245,0.0,0.0,88,0.00,,,0.00,VWS V14.01,2013-08-12 05:30:00,
2013-08-12 00:31:00,64.2,60.6,29.99,WSW,245,0.0,0.0,88,0.00,,,0.00,VWS V14.01,2013-08-12 05:31:00,
2013-08-12 00:36:00,64.2,60.6,29.99,WSW,245,0.0,0.0,88,0.00,,,0.00,VWS V14.01,2013-08-12 05:36:00,
2013-08-12 00:41:00,64.1,60.5,29.99,WSW,245,0.0,0.0,88,0.00,,,0.00,VWS V14.01,2013-08-12 05:41:00,
2013-08-12 00:46:00,64.0,60.4,29.99,WSW,245,0.0,0.0,88,0.00,,,0.00,VWS V14.01,2013-08-12 05:46:00,
2013-08-12 00:51:00,63.8,60.2,29.99,West,261,0.0,0.0,88,0.00,,,0.00,VWS V14.01,2013-08-12 05:51:00,
2013-08-12 00:56:00,63.7,60.1,29.99,West,261,0.0,0.0,88,0.00,,,0.00,VWS V14.01,2013-08-12 05:56:00,
2013-08-12 01:00:00,63.6,60.0,29.99,West,261,0.0,0.0,88,0.00,,,0.00,VWS V14.01,2013-08-12 06:00:00,
2013-08-12 01:01:00,63.6,60.0,29.99,West,262,0.0,0.0,88,0.00,,,0.00,VWS V14.01,2013-08-12 06:01:00,
2013-08-12 01:06:00,63.5,59.9,29.99,West,261,0.0,0.0,88,0.00,,,0.00,VWS V14.01,2013-08-12 06:06:00,
2013-08-12 01:11:00,63.4,59.8,30.00,West,262,0.0,0.0,88,0.00,,,0.00,VWS V14.01,2013-08-12 06:11:00,
2013-08-12 01:16:00,63.3,59.7,30.00,West,261,0.0,0.0,88,0.00,,,0.00,VWS V14.01,2013-08-12 06:16:00,
2013-08-12 01:21:00,63.2,59.6,30.00,West,261,0.0,0.0,88,0.00,,,0.00,VWS V14.01,2013-08-12 06:21:00,
2013-08-12 01:26:00,63.2,59.6,30.00,West,261,0.0,0.0,88,0.00,,,0.00,VWS V14.01,2013-08-12 06:26:00,
2013-08-12 01:30:00,63.1,59.5,29.99,West,261,0.0,0.0,88,0.00,,,0.00,VWS V14.01,2013-08-12 06:30:00,
2013-08-12 01:31:00,63.1,59.5,29.99,West,261,0.0,0.0,88,0.00,,,0.00,VWS V14.01,2013-08-12 06:31:00,
2013-08-12 01:36:00,63.0,59.4,29.99,West,261,0.0,0.0,88,0.00,,,0.00,VWS V14.01,2013-08-12 06:36:00,
2013-08-12 01:41:00,62.9,59.3,29.99,West,262,0.0,0.0,88,0.00,,,0.00,VWS V14.01,2013-08-12 06:41:00,
2013-08-12 01:46:00,62.8,59.2,29.99,West,261,0.0,0.0,88,0.00,,,0.00,VWS V14.01,2013-08-12 06:46:00,
2013-08-12 01:51:00,62.7,59.1,29.99,West,262,0.0,0.0,88,0.00,,,0.00,VWS V14.01,2013-08-12 06:51:00,
2013-08-12 01:56:00,62.6,59.0,29.99,West,262,0.0,0.0,88,0.00,,,0.00,VWS V14.01,2013-08-12 06:56:00,
2013-08-12 02:00:00,62.5,59.2,29.99,West,262,0.0,0.0,89,0.00,,,0.00,VWS V14.01,2013-08-12 07:00:00,
2013-08-12 02:01:00,62.5,59.2,29.99,West,261,0.0,0.0,89,0.00,,,0.00,VWS V14.01,2013-08-12 07:01:00,
2013-08-12 02:07:00,62.5,59.2,29.99,West,262,0.0,0.0,89,0.00,,,0.00,VWS V14.01,2013-08-12 07:07:00,
2013-08-12 02:12:00,62.3,59.0,29.99,West,262,0.0,0.0,89,0.00,,,0.00,VWS V14.01,2013-08-12 07:12:00,
2013-08-12 02:17:00,62.2,58.9,29.99,West,261,0.0,0.0,89,0.00,,,0.00,VWS V14.01,2013-08-12 07:17:00,
2013-08-12 02:22:00,62.1,58.8,29.99,West,261,0.0,0.0,89,0.00,,,0.00,VWS V14.01,2013-08-12 07:22:00,
2013-08-12 02:27:00,62.0,58.7,29.99,West,262,0.0,0.0,89,0.00,,,0.00,VWS V14.01,2013-08-12 07:27:00,
2013-08-12 02:30:00,61.9,58.6,29.99,West,261,0.0,0.0,89,0.00,,,0.00,VWS V14.01,2013-08-12 07:30:00,
2013-08-12 02:32:00,61.9,58.6,29.99,West,261,0.0,0.0,89,0.00,,,0.00,VWS V14.01,2013-08-12 07:32:00,
2013-08-12 02:37:00,61.8,58.5,29.99,West,262,0.0,0.0,89,0.00,,,0.00,VWS V14.01,2013-08-12 07:37:00,
2013-08-12 02:42:00,61.7,58.4,29.99,West,261,0.0,0.0,89,0.00,,,0.00,VWS V14.01,2013-08-12 07:42:00,
2013-08-12 02:47:00,61.6,58.3,29.99,West,262,0.0,0.0,89,0.00,,,0.00,VWS V14.01,2013-08-12 07:47:00,
2013-08-12 02:52:00,61.6,58.3,29.99,West,262,0.0,0.0,89,0.00,,,0.00,VWS V14.01,2013-08-12 07:52:00,
2013-08-12 02:57:00,61.6,58.3,29.99,West,261,0.0,0.0,89,0.00,,,0.00,VWS V14.01,2013-08-12 07:57:00,
2013-08-12 03:00:00,61.5,58.2,29.99,West,262,0.0,0.0,89,0.00,,,0.00,VWS V14.01,2013-08-12 08:00:00,
2013-08-12 03:02:00,61.4,58.1,29.99,West,262,0.0,0.0,89,0.00,,,0.00,VWS V14.01,2013-08-12 08:02:00,
2013-08-12 03:07:00,61.4,58.1,29.99,West,261,0.0,0.0,89,0.00,,,0.00,VWS V14.01,2013-08-12 08:07:00,
2013-08-12 03:12:00,61.3,58.0,29.99,West,262,0.0,0.0,89,0.00,,,0.00,VWS V14.01,2013-08-12 08:12:00,
2013-08-12 03:17:00,61.3,58.0,29.99,West,261,0.0,0.0,89,0.00,,,0.00,VWS V14.01,2013-08-12 08:17:00,
2013-08-12 03:22:00,61.2,57.9,29.99,West,262,0.0,0.0,89,0.00,,,0.00,VWS V14.01,2013-08-12 08:22:00,
2013-08-12 03:27:00,61.1,57.8,29.99,West,262,0.0,0.0,89,0.00,,,0.00,VWS V14.01,2013-08-12 08:27:00,
2013-08-12 03:30:00,61.1,57.8,29.99,West,261,0.0,0.0,89,0.00,,,0.00,VWS V14.01,2013-08-12 08:30:00,
2013-08-12 03:32:00,61.1,57.8,29.99,West,261,0.0,0.0,89,0.00,,,0.00,VWS V14.01,2013-08-12 08:32:00,
2013-08-12 03:37:00,61.1,57.8,29.99,West,261,0.0,0.0,89,0.00,,,0.00,VWS V14.01,2013-08-12 08:37:00,
2013-08-12 03:42:00,61.1,57.8,29.99,West,261,0.0,0.0,89,0.00,,,0.00,VWS V14.01,2013-08-12 08:42:00,
2013-08-12 03:47:00,61.0,57.7,29.99,West,262,0.0,0.0,89,0.00,,,0.00,VWS V14.01,2013-08-12 08:47:00,
2013-08-12 03:52:00,60.9,57.6,29.99,West,261,0.0,0.0,89,0.00,,,0.00,VWS V14.01,2013-08-12 08:52:00,
2013-08-12 03:57:00,60.8,57.5,29.99,West,261,0.0,0.0,89,0.00,,,0.00,VWS V14.01,2013-08-12 08:57:00,
2013-08-12 04:00:00,60.7,57.4,29.99,West,262,0.0,0.0,89,0.00,,,0.00,VWS V14.01,2013-08-12 09:00:00,
2013-08-12 04:03:00,60.7,57.4,29.99,West,261,0.0,0.0,89,0.00,,,0.00,VWS V14.01,2013-08-12 09:03:00,
2013-08-12 04:08:00,60.6,57.3,29.99,West,261,0.0,0.0,89,0.00,,,0.00,VWS V14.01,2013-08-12 09:08:00,
2013-08-12 04:13:00,60.4,57.2,29.99,West,262,0.0,0.0,89,0.00,,,0.00,VWS V14.01,2013-08-12 09:13:00,
2013-08-12 04:18:00,60.4,57.2,29.99,West,261,0.0,0.0,89,0.00,,,0.00,VWS V14.01,2013-08-12 09:18:00,
2013-08-12 04:23:00,60.2,57.0,29.99,West,262,0.0,0.0,89,0.00,,,0.00,VWS V14.01,2013-08-12 09:23:00,
2013-08-12 04:28:00,60.0,56.4,29.99,West,262,0.0,0.0,88,0.00,,,0.00,VWS V14.01,2013-08-12 09:28:00,
2013-08-12 04:30:00,59.9,56.3,29.99,West,262,0.0,0.0,88,0.00,,,0.00,VWS V14.01,2013-08-12 09:30:00,
2013-08-12 04:33:00,59.9,56.3,29.99,West,262,0.0,0.0,88,0.00,,,0.00,VWS V14.01,2013-08-12 09:33:00,
2013-08-12 04:38:00,59.7,56.2,29.99,West,261,0.0,0.0,88,0.00,,,0.00,VWS V14.01,2013-08-12 09:38:00,
2013-08-12 04:43:00,59.6,56.4,29.98,West,262,0.0,0.0,89,0.00,,,0.00,VWS V14.01,2013-08-12 09:43:00,
2013-08-12 04:48:00,59.5,56.3,29.99,West,261,0.0,0.0,89,0.00,,,0.00,VWS V14.01,2013-08-12 09:48:00,
2013-08-12 04:53:00,59.3,56.1,29.99,West,262,0.0,0.0,89,0.00,,,0.00,VWS V14.01,2013-08-12 09:53:00,
2013-08-12 04:58:00,59.1,55.9,29.99,West,261,0.0,0.0,89,0.00,,,0.00,VWS V14.01,2013-08-12 09:58:00,
2013-08-12 05:00:00,59.1,55.9,29.99,West,262,0.0,0.0,89,0.00,,,0.00,VWS V14.01,2013-08-12 10:00:00,
2013-08-12 05:03:00,59.0,55.8,29.99,West,261,0.0,0.0,89,0.00,,,0.00,VWS V14.01,2013-08-12 10:03:00,
2013-08-12 05:08:00,58.9,55.7,29.99,West,261,0.0,0.0,89,0.00,,,0.00,VWS V14.01,2013-08-12 10:08:00,
2013-08-12 05:13:00,58.7,55.5,29.99,West,261,0.0,0.0,89,0.00,,,0.00,VWS V14.01,2013-08-12 10:13:00,
2013-08-12 05:18:00,58.7,55.5,29.99,West,262,0.0,0.0,89,0.00,,,0.00,VWS V14.01,2013-08-12 10:18:00,
2013-08-12 05:23:00,58.6,55.4,29.99,West,261,0.0,0.0,89,0.00,,,0.00,VWS V14.01,2013-08-12 10:23:00,
2013-08-12 05:28:00,58.6,55.4,30.00,West,262,0.0,0.0,89,0.00,,,0.00,VWS V14.01,2013-08-12 10:28:00,
2013-08-12 05:30:00,58.6,55.4,30.00,West,262,0.0,0.0,89,0.00,,,0.00,VWS V14.01,2013-08-12 10:30:00,
2013-08-12 05:33:00,58.6,55.4,30.00,West,262,0.0,0.0,89,0.00,,,0.00,VWS V14.01,2013-08-12 10:33:00,
2013-08-12 05:38:00,58.6,55.4,30.00,West,262,0.0,0.0,89,0.00,,,0.00,VWS V14.01,2013-08-12 10:38:00,
2013-08-12 05:43:00,58.6,55.4,30.00,West,262,0.0,0.0,89,0.00,,,0.00,VWS V14.01,2013-08-12 10:43:00,
2013-08-12 05:48:00,58.6,55.4,30.00,West,261,0.0,0.0,89,0.00,,,0.00,VWS V14.01,2013-08-12 10:48:00,
2013-08-12 05:53:00,58.5,55.3,30.00,West,261,0.0,0.0,89,0.00,,,0.00,VWS V14.01,2013-08-12 10:53:00,
2013-08-12 05:58:00,58.5,55.3,29.99,West,262,0.0,0.0,89,0.00,,,0.00,VWS V14.01,2013-08-12 10:58:00,
2013-08-12 06:00:00,58.4,55.2,29.99,West,262,0.0,0.0,89,0.00,,,0.00,VWS V14.01,2013-08-12 11:00:00,
2013-08-12 06:04:00,58.4,55.2,29.99,West,269,0.0,0.0,89,0.00,,,0.00,VWS V14.01,2013-08-12 11:04:00,
2013-08-12 06:09:00,58.4,55.2,30.00,West,269,0.0,0.0,89,0.00,,,0.00,VWS V14.01,2013-08-12 11:09:00,
2013-08-12 06:14:00,58.4,55.5,30.00,West,269,0.0,0.0,90,0.00,,,0.00,VWS V14.01,2013-08-12 11:14:00,
2013-08-12 06:19:00,58.4,55.5,30.00,West,269,0.0,0.0,90,0.00,,,0.00,VWS V14.01,2013-08-12 11:19:00,
2013-08-12 06:24:00,58.4,55.5,30.00,West,269,0.0,1.0,90,0.00,,,0.00,VWS V14.01,2013-08-12 11:24:00,
2013-08-12 06:29:00,58.4,55.5,30.00,West,269,0.0,2.0,90,0.00,,,0.00,VWS V14.01,2013-08-12 11:29:00,
2013-08-12 06:30:00,58.4,55.5,30.00,West,270,0.0,2.0,90,0.00,,,0.00,VWS V14.01,2013-08-12 11:30:00,
2013-08-12 06:34:00,58.4,55.5,30.00,West,278,0.0,1.0,90,0.00,,,0.00,VWS V14.01,2013-08-12 11:34:00,
2013-08-12 06:39:00,58.4,55.5,30.00,West,278,0.0,1.0,90,0.00,,,0.00,VWS V14.01,2013-08-12 11:39:00,
2013-08-12 06:44:00,58.6,55.7,30.01,West,278,0.0,1.0,90,0.00,,,0.00,VWS V14.01,2013-08-12 11:44:00,
2013-08-12 06:49:00,58.8,55.6,30.01,WNW,282,3.0,3.0,89,0.00,,,0.00,VWS V14.01,2013-08-12 11:49:00,
2013-08-12 06:54:00,59.0,56.1,30.01,WNW,285,0.0,4.0,90,0.00,,,0.00,VWS V14.01,2013-08-12 11:54:00,
2013-08-12 06:59:00,59.3,56.1,30.01,WNW,285,0.0,4.0,89,0.00,,,0.00,VWS V14.01,2013-08-12 11:59:00,
2013-08-12 07:00:00,59.4,56.2,30.01,WNW,285,4.0,4.0,89,0.00,,,0.00,VWS V14.01,2013-08-12 12:00:00,
2013-08-12 07:04:00,59.5,56.3,30.01,WNW,285,0.0,4.0,89,0.00,,,0.00,VWS V14.01,2013-08-12 12:04:00,
2013-08-12 07:09:00,59.8,56.6,30.01,WNW,285,0.0,4.0,89,0.00,,,0.00,VWS V14.01,2013-08-12 12:09:00,
2013-08-12 07:14:00,60.2,57.0,30.01,WNW,285,0.0,4.0,89,0.00,,,0.00,VWS V14.01,2013-08-12 12:14:00,
2013-08-12 07:19:00,60.6,57.0,30.01,WNW,285,0.0,4.0,88,0.00,,,0.00,VWS V14.01,2013-08-12 12:19:00,
2013-08-12 07:24:00,61.0,57.4,30.01,WNW,285,0.0,4.0,88,0.00,,,0.00,VWS V14.01,2013-08-12 12:24:00,
2013-08-12 07:29:00,61.2,57.3,30.01,WNW,285,0.0,4.0,87,0.00,,,0.00,VWS V14.01,2013-08-12 12:29:00,
2013-08-12 07:30:00,61.2,57.3,30.01,WNW,285,0.0,4.0,87,0.00,,,0.00,VWS V14.01,2013-08-12 12:30:00,
2013-08-12 07:34:00,61.1,56.9,30.01,WNW,285,0.0,0.0,86,0.00,,,0.00,VWS V14.01,2013-08-12 12:34:00,
2013-08-12 07:39:00,61.0,56.8,30.01,WNW,285,0.0,0.0,86,0.00,,,0.00,VWS V14.01,2013-08-12 12:39:00,
2013-08-12 07:44:00,61.0,56.8,30.01,WNW,285,0.0,0.0,86,0.00,,,0.00,VWS V14.01,2013-08-12 12:44:00,
2013-08-12 07:49:00,61.1,56.9,30.01,WNW,285,0.0,0.0,86,0.00,,,0.00,VWS V14.01,2013-08-12 12:49:00,
2013-08-12 07:54:00,61.2,57.0,30.01,WNW,285,0.0,0.0,86,0.00,,,0.00,VWS V14.01,2013-08-12 12:54:00,
2013-08-12 07:59:00,61.5,57.0,30.01,WNW,285,0.0,0.0,85,0.00,,,0.00,VWS V14.01,2013-08-12 12:59:00,
2013-08-12 08:00:00,61.6,57.0,30.01,WNW,285,0.0,0.0,85,0.00,,,0.00,VWS V14.01,2013-08-12 13:00:00,
2013-08-12 08:04:00,62.0,57.5,30.01,WNW,285,0.0,0.0,85,0.00,,,0.00,VWS V14.01,2013-08-12 13:04:00,
2013-08-12 08:10:00,62.7,57.8,30.01,North,353,2.0,4.0,84,0.00,,,0.00,VWS V14.01,2013-08-12 13:10:00,
2013-08-12 08:15:00,63.5,58.2,30.01,North,352,0.0,4.0,83,0.00,,,0.00,VWS V14.01,2013-08-12 13:15:00,
2013-08-12 08:20:00,64.3,58.7,30.01,North,352,0.0,4.0,82,0.00,,,0.00,VWS V14.01,2013-08-12 13:20:00,
2013-08-12 08:25:00,64.9,58.9,30.01,NNW,332,0.0,4.0,81,0.00,,,0.00,VWS V14.01,2013-08-12 13:25:00,
2013-08-12 08:30:00,65.4,59.4,30.01,NNW,332,0.0,4.0,81,0.00,,,0.00,VWS V14.01,2013-08-12 13:30:00,
2013-08-12 08:35:00,66.0,59.3,30.01,NNW,331,0.0,1.0,79,0.00,,,0.00,VWS V14.01,2013-08-12 13:35:00,
2013-08-12 08:40:00,66.3,59.6,30.01,WNW,294,3.0,5.0,79,0.00,,,0.00,VWS V14.01,2013-08-12 13:40:00,
2013-08-12 08:45:00,66.4,59.0,30.01,WNW,294,0.0,5.0,77,0.00,,,0.00,VWS V14.01,2013-08-12 13:45:00,
2013-08-12 08:50:00,66.5,59.1,30.01,ENE,62,0.0,5.0,77,0.00,,,0.00,VWS V14.01,2013-08-12 13:50:00,
2013-08-12 08:55:00,66.8,59.7,30.01,NW,317,0.0,5.0,78,0.00,,,0.00,VWS V14.01,2013-08-12 13:55:00,
2013-08-12 09:00:00,67.6,59.8,30.01,NNW,337,0.0,5.0,76,0.00,,,0.00,VWS V14.01,2013-08-12 14:00:00,
2013-08-12 09:05:00,68.1,60.3,30.01,NNW,336,2.0,3.0,76,0.00,,,0.00,VWS V14.01,2013-08-12 14:05:00,
2013-08-12 09:10:00,68.3,59.7,30.01,NNW,335,0.0,5.0,74,0.00,,,0.00,VWS V14.01,2013-08-12 14:10:00,
2013-08-12 09:15:00,68.7,59.7,30.02,WNW,299,4.0,5.0,73,0.00,,,0.00,VWS V14.01,2013-08-12 14:15:00,
2013-08-12 09:20:00,68.7,59.7,30.02,WNW,303,6.0,9.0,73,0.00,,,0.00,VWS V14.01,2013-08-12 14:20:00,
2013-08-12 09:25:00,68.7,59.3,30.02,NW,310,4.0,11.0,72,0.00,,,0.00,VWS V14.01,2013-08-12 14:25:00,
2013-08-12 09:30:00,68.8,59.0,30.02,NW,315,8.0,12.0,71,0.00,,,0.00,VWS V14.01,2013-08-12 14:30:00,
2013-08-12 09:35:00,68.8,59.0,30.02,NW,307,1.0,12.0,71,0.00,,,0.00,VWS V14.01,2013-08-12 14:35:00,
2013-08-12 09:40:00,68.8,59.0,30.02,NW,325,3.0,12.0,71,0.00,,,0.00,VWS V14.01,2013-08-12 14:40:00,
2013-08-12 09:45:00,69.0,59.6,30.02,NW,322,9.0,12.0,72,0.00,,,0.00,VWS V14.01,2013-08-12 14:45:00,
2013-08-12 09:50:00,69.3,59.5,30.02,NW,308,6.0,14.0,71,0.00,,,0.00,VWS V14.01,2013-08-12 14:50:00,
2013-08-12 09:55:00,69.6,59.4,30.02,NW,318,8.0,14.0,70,0.00,,,0.00,VWS V14.01,2013-08-12 14:55:00,
2013-08-12 10:00:00,69.7,59.5,30.02,North,354,1.0,14.0,70,0.00,,,0.00,VWS V14.01,2013-08-12 15:00:00,
2013-08-12 10:01:00,69.7,59.5,30.02,North,354,0.0,14.0,70,0.00,,,0.00,VWS V14.01,2013-08-12 15:01:00,
2013-08-12 10:06:00,70.1,59.9,30.02,NNW,331,0.0,9.0,70,0.00,,,0.00,VWS V14.01,2013-08-12 15:06:00,
2013-08-12 10:11:00,70.6,60.3,30.02,NW,315,4.0,9.0,70,0.00,,,0.00,VWS V14.01,2013-08-12 15:11:00,
2013-08-12 10:16:00,70.8,60.1,30.02,NW,322,3.0,11.0,69,0.00,,,0.00,VWS V14.01,2013-08-12 15:16:00,
2013-08-12 10:21:00,71.1,60.8,30.02,WNW,292,1.0,11.0,70,0.00,,,0.00,VWS V14.01,2013-08-12 15:21:00,
2013-08-12 10:26:00,71.3,60.2,30.02,North,11,6.0,13.0,68,0.00,,,0.00,VWS V14.01,2013-08-12 15:26:00,
2013-08-12 10:30:00,71.5,60.4,30.02,North,357,0.0,13.0,68,0.00,,,0.00,VWS V14.01,2013-08-12 15:30:00,
2013-08-12 10:31:00,71.5,60.4,30.02,North,357,0.0,13.0,68,0.00,,,0.00,VWS V14.01,2013-08-12 15:31:00,
2013-08-12 10:36:00,71.7,60.6,30.02,North,11,0.0,11.0,68,0.00,,,0.00,VWS V14.01,2013-08-12 15:36:00,
2013-08-12 10:41:00,72.0,60.9,30.02,North,356,6.0,11.0,68,0.00,,,0.00,VWS V14.01,2013-08-12 15:41:00,
2013-08-12 10:46:00,72.1,60.5,30.02,NW,310,0.0,11.0,67,0.00,,,0.00,VWS V14.01,2013-08-12 15:46:00,
2013-08-12 10:51:00,72.2,60.2,30.02,NW,320,9.0,14.0,66,0.00,,,0.00,VWS V14.01,2013-08-12 15:51:00,
2013-08-12 10:56:00,72.3,60.3,30.02,NW,325,6.0,14.0,66,0.00,,,0.00,VWS V14.01,2013-08-12 15:56:00,
2013-08-12 11:00:00,72.4,60.0,30.02,North,358,4.0,14.0,65,0.00,,,0.00,VWS V14.01,2013-08-12 16:00:00,
2013-08-12 11:01:00,72.4,60.0,30.02,North,355,8.0,10.0,65,0.00,,,0.00,VWS V14.01,2013-08-12 16:01:00,
2013-08-12 11:06:00,72.5,59.6,30.02,North,2,6.0,15.0,64,0.00,,,0.00,VWS V14.01,2013-08-12 16:06:00,
2013-08-12 11:11:00,72.6,60.2,30.02,WNW,294,6.0,15.0,65,0.00,,,0.00,VWS V14.01,2013-08-12 16:11:00,
2013-08-12 11:16:00,72.7,60.3,30.02,NW,307,1.0,15.0,65,0.00,,,0.00,VWS V14.01,2013-08-12 16:16:00,
2013-08-12 11:21:00,72.7,59.8,30.02,NW,312,5.0,15.0,64,0.00,,,0.00,VWS V14.01,2013-08-12 16:21:00,
2013-08-12 11:26:00,72.9,60.0,30.02,NW,318,7.0,15.0,64,0.00,,,0.00,VWS V14.01,2013-08-12 16:26:00,
2013-08-12 11:30:00,73.0,59.7,30.02,West,279,5.0,15.0,63,0.00,,,0.00,VWS V14.01,2013-08-12 16:30:00,
2013-08-12 11:31:00,73.0,59.7,30.02,NNW,336,12.0,13.0,63,0.00,,,0.00,VWS V14.01,2013-08-12 16:31:00,
2013-08-12 11:36:00,73.1,59.3,30.03,NW,304,8.0,14.0,62,0.00,,,0.00,VWS V14.01,2013-08-12 16:36:00,
2013-08-12 11:41:00,73.2,59.4,30.03,NW,325,4.0,14.0,62,0.00,,,0.00,VWS V14.01,2013-08-12 16:41:00,
2013-08-12 11:47:00,73.3,58.1,30.03,North,11,5.0,14.0,59,0.00,,,0.00,VWS V14.01,2013-08-12 16:47:00,
2013-08-12 11:52:00,73.3,58.6,30.03,North,359,7.0,14.0,60,0.00,,,0.00,VWS V14.01,2013-08-12 16:52:00,
2013-08-12 11:57:00,73.5,58.8,30.02,North,7,9.0,14.0,60,0.00,,,0.00,VWS V14.01,2013-08-12 16:57:00,
2013-08-12 12:00:00,73.6,57.9,30.02,NNE,17,7.0,14.0,58,0.00,,,0.00,VWS V14.01,2013-08-12 17:00:00,
2013-08-12 12:02:00,73.6,57.9,30.02,NNW,344,10.0,15.0,58,0.00,,,0.00,VWS V14.01,2013-08-12 17:02:00,
2013-08-12 12:07:00,73.7,57.0,30.03,NW,308,3.0,15.0,56,0.00,,,0.00,VWS V14.01,2013-08-12 17:07:00,
2013-08-12 12:12:00,73.8,57.6,30.02,North,358,5.0,15.0,57,0.00,,,0.00,VWS V14.01,2013-08-12 17:12:00,
2013-08-12 12:17:00,73.9,57.2,30.02,North,358,5.0,15.0,56,0.00,,,0.00,VWS V14.01,2013-08-12 17:17:00,
2013-08-12 12:22:00,74.1,56.4,30.02,NW,309,3.0,15.0,54,0.00,,,0.00,VWS V14.01,2013-08-12 17:22:00,
2013-08-12 12:27:00,74.3,56.1,30.02,NNW,327,4.0,15.0,53,0.00,,,0.00,VWS V14.01,2013-08-12 17:27:00,
2013-08-12 12:30:00,74.2,56.5,30.03,NNW,328,5.0,15.0,54,0.00,,,0.00,VWS V14.01,2013-08-12 17:30:00,
2013-08-12 12:32:00,74.2,57.0,30.03,NNW,339,3.0,7.0,55,0.00,,,0.00,VWS V14.01,2013-08-12 17:32:00,
2013-08-12 12:37:00,74.3,56.1,30.02,West,273,4.0,13.0,53,0.00,,,0.00,VWS V14.01,2013-08-12 17:37:00,
2013-08-12 12:42:00,74.4,54.6,30.03,NNW,339,10.0,14.0,50,0.00,,,0.00,VWS V14.01,2013-08-12 17:42:00,
2013-08-12 12:47:00,74.6,55.8,30.03,NNW,331,5.0,14.0,52,0.00,,,0.00,VWS V14.01,2013-08-12 17:47:00,
2013-08-12 12:52:00,74.8,57.1,30.03,NNW,344,12.0,14.0,54,0.00,,,0.00,VWS V14.01,2013-08-12 17:52:00,
2013-08-12 12:57:00,74.9,56.1,30.03,NW,325,5.0,14.0,52,0.00,,,0.00,VWS V14.01,2013-08-12 17:57:00,
2013-08-12 13:00:00,74.9,55.6,30.03,NNE,25,3.0,14.0,51,0.00,,,0.00,VWS V14.01,2013-08-12 18:00:00,
2013-08-12 13:02:00,74.9,57.2,30.03,NNW,331,6.0,7.0,54,0.00,,,0.00,VWS V14.01,2013-08-12 18:02:00,
2013-08-12 13:07:00,74.9,55.6,30.03,NW,311,10.0,16.0,51,0.00,,,0.00,VWS V14.01,2013-08-12 18:07:00,
2013-08-12 13:12:00,75.1,56.8,30.02,North,2,1.0,16.0,53,0.00,,,0.00,VWS V14.01,2013-08-12 18:12:00,
2013-08-12 13:18:00,75.2,56.9,30.02,NW,316,10.0,16.0,53,0.00,,,0.00,VWS V14.01,2013-08-12 18:18:00,
2013-08-12 13:24:00,75.2,56.4,30.02,NW,311,5.0,16.0,52,0.00,,,0.00,VWS V14.01,2013-08-12 18:24:00,
2013-08-12 13:29:00,75.4,57.1,30.02,NW,325,9.0,16.0,53,0.00,,,0.00,VWS V14.01,2013-08-12 18:29:00,
2013-08-12 13:30:00,75.4,56.0,30.02,NW,313,7.0,16.0,51,0.00,,,0.00,VWS V14.01,2013-08-12 18:30:00,
2013-08-12 13:34:00,75.4,55.5,30.02,NNW,333,2.0,12.0,50,0.00,,,0.00,VWS V14.01,2013-08-12 18:34:00,
2013-08-12 13:39:00,75.7,56.8,30.02,North,350,1.0,12.0,52,0.00,,,0.00,VWS V14.01,2013-08-12 18:39:00,
2013-08-12 13:44:00,75.8,56.9,30.01,NW,314,4.0,12.0,52,0.00,,,0.00,VWS V14.01,2013-08-12 18:44:00,
2013-08-12 13:50:00,75.8,55.9,30.02,NNW,347,3.0,12.0,50,0.00,,,0.00,VWS V14.01,2013-08-12 18:50:00,
2013-08-12 13:55:00,75.8,55.9,30.01,WNW,302,4.0,13.0,50,0.00,,,0.00,VWS V14.01,2013-08-12 18:55:00,
2013-08-12 14:00:00,75.8,55.3,30.02,NNW,329,12.0,17.0,49,0.00,,,0.00,VWS V14.01,2013-08-12 19:00:00,
2013-08-12 14:05:00,76.0,57.1,30.02,NW,305,11.0,12.0,52,0.00,,,0.00,VWS V14.01,2013-08-12 19:05:00,
2013-08-12 14:10:00,76.1,57.2,30.01,NW,316,3.0,12.0,52,0.00,,,0.00,VWS V14.01,2013-08-12 19:10:00,
2013-08-12 14:15:00,76.2,56.2,30.01,NW,314,4.0,13.0,50,0.00,,,0.00,VWS V14.01,2013-08-12 19:15:00,
2013-08-12 14:20:00,76.1,56.7,30.01,NW,316,1.0,13.0,51,0.00,,,0.00,VWS V14.01,2013-08-12 19:20:00,
2013-08-12 14:25:00,76.2,56.8,30.01,WNW,302,6.0,16.0,51,0.00,,,0.00,VWS V14.01,2013-08-12 19:25:00,
2013-08-12 14:30:00,76.2,57.8,30.01,NW,304,5.0,16.0,53,0.00,,,0.00,VWS V14.01,2013-08-12 19:30:00,
2013-08-12 14:35:00,76.5,58.1,30.01,NNE,17,4.0,8.0,53,0.00,,,0.00,VWS V14.01,2013-08-12 19:35:00,
2013-08-12 14:40:00,76.7,58.3,30.01,West,271,0.0,12.0,53,0.00,,,0.00,VWS V14.01,2013-08-12 19:40:00,
2013-08-12 14:45:00,76.8,59.4,30.01,NW,320,6.0,12.0,55,0.00,,,0.00,VWS V14.01,2013-08-12 19:45:00,
2013-08-12 14:50:00,77.0,58.0,30.01,NW,321,6.0,12.0,52,0.00,,,0.00,VWS V14.01,2013-08-12 19:50:00,
2013-08-12 14:55:00,76.9,56.9,30.01,West,280,1.0,12.0,50,0.00,,,0.00,VWS V14.01,2013-08-12 19:55:00,
2013-08-12 15:00:00,76.9,58.0,30.00,NW,314,0.0,12.0,52,0.00,,,0.00,VWS V14.01,2013-08-12 20:00:00,
2013-08-12 15:06:00,77.1,57.0,30.00,NW,308,3.0,14.0,50,0.00,,,0.00,VWS V14.01,2013-08-12 20:06:00,
2013-08-12 15:11:00,77.2,57.1,30.00,NW,314,0.0,14.0,50,0.00,,,0.00,VWS V14.01,2013-08-12 20:11:00,
2013-08-12 15:16:00,77.2,56.6,30.00,NNW,329,9.0,14.0,49,0.00,,,0.00,VWS V14.01,2013-08-12 20:16:00,
2013-08-12 15:21:00,77.2,57.1,30.00,WNW,293,6.0,14.0,50,0.00,,,0.00,VWS V14.01,2013-08-12 20:21:00,
2013-08-12 15:26:00,77.2,56.0,30.00,North,352,6.0,14.0,48,0.00,,,0.00,VWS V14.01,2013-08-12 20:26:00,
2013-08-12 15:30:00,77.0,56.4,30.00,NNW,336,2.0,14.0,49,0.00,,,0.00,VWS V14.01,2013-08-12 20:30:00,
2013-08-12 15:31:00,77.0,56.4,30.00,NNW,336,2.0,14.0,49,0.00,,,0.00,VWS V14.01,2013-08-12 20:31:00,
2013-08-12 15:36:00,77.1,56.5,30.00,North,350,1.0,10.0,49,0.00,,,0.00,VWS V14.01,2013-08-12 20:36:00,
2013-08-12 15:41:00,77.3,57.2,30.00,NW,322,0.0,10.0,50,0.00,,,0.00,VWS V14.01,2013-08-12 20:41:00,
2013-08-12 15:46:00,77.3,56.7,30.00,NW,305,5.0,11.0,49,0.00,,,0.00,VWS V14.01,2013-08-12 20:46:00,
2013-08-12 15:51:00,77.3,56.7,30.00,WNW,302,5.0,11.0,49,0.00,,,0.00,VWS V14.01,2013-08-12 20:51:00,
2013-08-12 15:56:00,77.4,57.3,30.00,NW,316,11.0,12.0,50,0.00,,,0.00,VWS V14.01,2013-08-12 20:56:00,
2013-08-12 16:00:00,77.5,56.9,29.99,NW,319,1.0,13.0,49,0.00,,,0.00,VWS V14.01,2013-08-12 21:00:00,
2013-08-12 16:01:00,77.5,56.9,29.99,North,354,7.0,7.0,49,0.00,,,0.00,VWS V14.01,2013-08-12 21:01:00,
2013-08-12 16:06:00,77.5,57.4,29.99,NW,306,3.0,12.0,50,0.00,,,0.00,VWS V14.01,2013-08-12 21:06:00,
2013-08-12 16:11:00,77.5,58.5,29.99,NW,310,0.0,12.0,52,0.00,,,0.00,VWS V14.01,2013-08-12 21:11:00,
2013-08-12 16:16:00,77.8,57.7,29.99,NW,308,3.0,12.0,50,0.00,,,0.00,VWS V14.01,2013-08-12 21:16:00,
2013-08-12 16:22:00,78.0,57.3,29.99,NW,305,0.0,12.0,49,0.00,,,0.00,VWS V14.01,2013-08-12 21:22:00,
2013-08-12 16:27:00,78.1,57.4,29.99,WNW,303,7.0,12.0,49,0.00,,,0.00,VWS V14.01,2013-08-12 21:27:00,
2013-08-12 16:30:00,78.1,57.4,29.99,NW,312,1.0,12.0,49,0.00,,,0.00,VWS V14.01,2013-08-12 21:30:00,
2013-08-12 16:32:00,78.1,58.0,29.99,NW,323,9.0,9.0,50,0.00,,,0.00,VWS V14.01,2013-08-12 21:32:00,
2013-08-12 16:37:00,78.0,57.3,29.99,NNW,339,4.0,9.0,49,0.00,,,0.00,VWS V14.01,2013-08-12 21:37:00,
2013-08-12 16:43:00,78.2,56.3,29.99,NNW,337,3.0,12.0,47,0.00,,,0.00,VWS V14.01,2013-08-12 21:43:00,
2013-08-12 16:48:00,78.1,58.0,29.99,NNW,346,7.0,12.0,50,0.00,,,0.00,VWS V14.01,2013-08-12 21:48:00,
2013-08-12 16:53:00,78.0,56.7,29.98,WNW,301,4.0,12.0,48,0.00,,,0.00,VWS V14.01,2013-08-12 21:53:00,
2013-08-12 16:58:00,77.9,57.2,29.98,NW,306,7.0,12.0,49,0.00,,,0.00,VWS V14.01,2013-08-12 21:58:00,
2013-08-12 17:00:00,77.9,57.2,29.98,NW,316,10.0,12.0,49,0.00,,,0.00,VWS V14.01,2013-08-12 22:00:00,
2013-08-12 17:04:00,77.8,56.6,29.98,NW,316,8.0,11.0,48,0.00,,,0.00,VWS V14.01,2013-08-12 22:04:00,
2013-08-12 17:09:00,77.8,57.1,29.98,NNW,346,4.0,11.0,49,0.00,,,0.00,VWS V14.01,2013-08-12 22:09:00,
2013-08-12 17:14:00,78.1,58.0,29.98,NW,310,0.0,11.0,50,0.00,,,0.00,VWS V14.01,2013-08-12 22:14:00,
2013-08-12 17:19:00,78.3,58.2,29.98,WNW,283,4.0,11.0,50,0.00,,,0.00,VWS V14.01,2013-08-12 22:19:00,
2013-08-12 17:24:00,78.5,57.8,29.98,NW,304,0.0,11.0,49,0.00,,,0.00,VWS V14.01,2013-08-12 22:24:00,
2013-08-12 17:29:00,78.5,57.2,29.98,WNW,289,0.0,11.0,48,0.00,,,0.00,VWS V14.01,2013-08-12 22:29:00,
2013-08-12 17:30:00,78.6,57.9,29.98,WNW,290,0.0,11.0,49,0.00,,,0.00,VWS V14.01,2013-08-12 22:30:00,
2013-08-12 17:34:00,78.7,58.5,29.98,WNW,287,0.0,4.0,50,0.00,,,0.00,VWS V14.01,2013-08-12 22:34:00,
2013-08-12 17:39:00,78.7,58.5,29.98,NW,314,6.0,11.0,50,0.00,,,0.00,VWS V14.01,2013-08-12 22:39:00,
2013-08-12 17:44:00,78.4,57.7,29.98,NW,310,4.0,11.0,49,0.00,,,0.00,VWS V14.01,2013-08-12 22:44:00,
2013-08-12 17:49:00,77.9,57.2,29.98,NNW,337,0.0,11.0,49,0.00,,,0.00,VWS V14.01,2013-08-12 22:49:00,
2013-08-12 17:54:00,77.6,58.1,29.98,NW,321,0.0,11.0,51,0.00,,,0.00,VWS V14.01,2013-08-12 22:54:00,
2013-08-12 17:59:00,77.2,56.6,29.98,NW,318,3.0,11.0,49,0.00,,,0.00,VWS V14.01,2013-08-12 22:59:00,
2013-08-12 18:00:00,77.2,56.6,29.98,NW,321,0.0,11.0,49,0.00,,,0.00,VWS V14.01,2013-08-12 23:00:00,
2013-08-12 18:04:00,77.1,57.6,29.98,WNW,299,2.0,7.0,51,0.00,,,0.00,VWS V14.01,2013-08-12 23:04:00,
2013-08-12 18:09:00,76.9,59.0,29.98,NW,308,1.0,9.0,54,0.00,,,0.00,VWS V14.01,2013-08-12 23:09:00,
2013-08-12 18:15:00,76.7,57.8,29.98,NW,321,0.0,9.0,52,0.00,,,0.00,VWS V14.01,2013-08-12 23:15:00,
2013-08-12 18:20:00,76.5,60.2,29.98,NW,304,0.0,9.0,57,0.00,,,0.00,VWS V14.01,2013-08-12 23:20:00,
2013-08-12 18:25:00,76.4,58.5,29.98,NW,304,1.0,9.0,54,0.00,,,0.00,VWS V14.01,2013-08-12 23:25:00,
2013-08-12 18:30:00,76.3,59.0,29.98,NW,304,0.0,9.0,55,0.00,,,0.00,VWS V14.01,2013-08-12 23:30:00,
2013-08-12 18:35:00,76.1,58.3,29.98,NW,305,4.0,6.0,54,0.00,,,0.00,VWS V14.01,2013-08-12 23:35:00,
2013-08-12 18:40:00,76.0,59.2,29.98,NW,306,0.0,7.0,56,0.00,,,0.00,VWS V14.01,2013-08-12 23:40:00,
2013-08-12 18:45:00,75.8,59.0,29.98,NW,306,0.0,7.0,56,0.00,,,0.00,VWS V14.01,2013-08-12 23:45:00,
2013-08-12 18:50:00,75.7,58.4,29.98,NW,306,0.0,7.0,55,0.00,,,0.00,VWS V14.01,2013-08-12 23:50:00,
2013-08-12 18:55:00,75.6,58.8,29.98,WNW,299,3.0,7.0,56,0.00,,,0.00,VWS V14.01,2013-08-12 23:55:00,
2013-08-12 19:00:00,75.4,59.1,29.98,WNW,299,0.0,7.0,57,0.00,,,0.00,VWS V14.01,2013-08-13 00:00:00,
2013-08-12 19:05:00,75.3,59.0,29.98,WNW,300,0.0,4.0,57,0.00,,,0.00,VWS V14.01,2013-08-13 00:05:00,
2013-08-12 19:10:00,75.3,59.5,29.98,WNW,299,0.0,4.0,58,0.00,,,0.00,VWS V14.01,2013-08-13 00:10:00,
2013-08-12 19:15:00,75.2,59.4,29.98,WNW,299,0.0,4.0,58,0.00,,,0.00,VWS V14.01,2013-08-13 00:15:00,
2013-08-12 19:20:00,75.1,59.8,29.98,WNW,300,0.0,4.0,59,0.00,,,0.00,VWS V14.01,2013-08-13 00:20:00,
2013-08-12 19:25:00,74.9,60.6,29.98,WNW,300,0.0,4.0,61,0.00,,,0.00,VWS V14.01,2013-08-13 00:25:00,
2013-08-12 19:30:00,74.6,59.3,29.99,North,356,5.0,9.0,59,0.00,,,0.00,VWS V14.01,2013-08-13 00:30:00,
2013-08-12 19:35:00,74.5,58.8,29.99,NW,321,3.0,7.0,58,0.00,,,0.00,VWS V14.01,2013-08-13 00:35:00,
2013-08-12 19:40:00,74.2,58.0,29.99,North,356,1.0,7.0,57,0.00,,,0.00,VWS V14.01,2013-08-13 00:40:00,
2013-08-12 19:46:00,74.0,57.3,29.99,NNW,338,3.0,8.0,56,0.00,,,0.00,VWS V14.01,2013-08-13 00:46:00,
2013-08-12 19:51:00,73.6,57.0,29.99,NNW,348,4.0,8.0,56,0.00,,,0.00,VWS V14.01,2013-08-13 00:51:00,
2013-08-12 19:56:00,73.3,57.2,29.99,NNW,348,1.0,8.0,57,0.00,,,0.00,VWS V14.01,2013-08-13 00:56:00,
2013-08-12 20:00:00,72.9,56.8,29.99,North,352,2.0,8.0,57,0.00,,,0.00,VWS V14.01,2013-08-13 01:00:00,
2013-08-12 20:01:00,73.0,56.9,29.99,North,352,3.0,8.0,57,0.00,,,0.00,VWS V14.01,2013-08-13 01:01:00,
2013-08-12 20:06:00,72.8,57.2,29.99,North,350,0.0,5.0,58,0.00,,,0.00,VWS V14.01,2013-08-13 01:06:00,
2013-08-12 20:11:00,72.5,56.9,29.99,North,350,1.0,5.0,58,0.00,,,0.00,VWS V14.01,2013-08-13 01:11:00,
2013-08-12 20:16:00,72.4,56.8,29.99,North,356,0.0,5.0,58,0.00,,,0.00,VWS V14.01,2013-08-13 01:16:00,
2013-08-12 20:21:00,72.2,57.1,29.99,North,356,0.0,5.0,59,0.00,,,0.00,VWS V14.01,2013-08-13 01:21:00,
2013-08-12 20:26:00,72.0,57.4,29.99,North,356,0.0,5.0,60,0.00,,,0.00,VWS V14.01,2013-08-13 01:26:00,
2013-08-12 20:30:00,71.9,59.1,29.99,North,356,0.0,5.0,64,0.00,,,0.00,VWS V14.01,2013-08-13 01:30:00,
2013-08-12 20:31:00,71.9,59.1,29.99,North,356,0.0,0.0,64,0.00,,,0.00,VWS V14.01,2013-08-13 01:31:00,
2013-08-12 20:36:00,71.7,58.0,30.00,North,356,0.0,0.0,62,0.00,,,0.00,VWS V14.01,2013-08-13 01:36:00,
2013-08-12 20:41:00,71.4,59.9,30.00,North,356,0.0,0.0,67,0.00,,,0.00,VWS V14.01,2013-08-13 01:41:00,
2013-08-12 20:46:00,71.1,60.0,30.00,North,356,0.0,0.0,68,0.00,,,0.00,VWS V14.01,2013-08-13 01:46:00,
2013-08-12 20:51:00,70.7,60.0,30.00,North,356,0.0,0.0,69,0.00,,,0.00,VWS V14.01,2013-08-13 01:51:00,
2013-08-12 20:56:00,70.4,60.2,30.00,North,356,0.0,0.0,70,0.00,,,0.00,VWS V14.01,2013-08-13 01:56:00,
2013-08-12 21:00:00,70.1,60.3,30.00,North,356,0.0,0.0,71,0.00,,,0.00,VWS V14.01,2013-08-13 02:00:00,
2013-08-12 21:01:00,70.1,60.3,30.00,North,356,0.0,0.0,71,0.00,,,0.00,VWS V14.01,2013-08-13 02:01:00,
2013-08-12 21:06:00,69.8,60.4,30.00,North,356,0.0,0.0,72,0.00,,,0.00,VWS V14.01,2013-08-13 02:06:00,
2013-08-12 21:12:00,69.3,59.9,30.01,North,356,0.0,0.0,72,0.00,,,0.00,VWS V14.01,2013-08-13 02:12:00,
2013-08-12 21:17:00,68.8,59.0,30.01,North,356,0.0,0.0,71,0.00,,,0.00,VWS V14.01,2013-08-13 02:17:00,
2013-08-12 21:22:00,68.5,58.7,30.01,North,356,0.0,0.0,71,0.00,,,0.00,VWS V14.01,2013-08-13 02:22:00,
2013-08-12 21:27:00,68.2,58.5,30.01,North,356,0.0,0.0,71,0.00,,,0.00,VWS V14.01,2013-08-13 02:27:00,
2013-08-12 21:30:00,68.0,58.3,30.01,North,356,0.0,0.0,71,0.00,,,0.00,VWS V14.01,2013-08-13 02:30:00,
2013-08-12 21:32:00,68.0,58.3,30.01,North,356,0.0,0.0,71,0.00,,,0.00,VWS V14.01,2013-08-13 02:32:00,
2013-08-12 21:37:00,67.8,58.5,30.02,North,356,0.0,0.0,72,0.00,,,0.00,VWS V14.01,2013-08-13 02:37:00,
2013-08-12 21:42:00,67.6,59.0,30.02,North,356,0.0,0.0,74,0.00,,,0.00,VWS V14.01,2013-08-13 02:42:00,
2013-08-12 21:47:00,67.5,59.7,30.02,North,356,0.0,0.0,76,0.00,,,0.00,VWS V14.01,2013-08-13 02:47:00,
2013-08-12 21:52:00,67.2,59.8,30.02,North,356,0.0,0.0,77,0.00,,,0.00,VWS V14.01,2013-08-13 02:52:00,
2013-08-12 21:57:00,67.0,59.6,30.02,North,356,0.0,0.0,77,0.00,,,0.00,VWS V14.01,2013-08-13 02:57:00,
2013-08-12 22:00:00,66.7,59.3,30.02,North,356,0.0,0.0,77,0.00,,,0.00,VWS V14.01,2013-08-13 03:00:00,
2013-08-12 22:02:00,66.7,59.3,30.02,North,356,0.0,0.0,77,0.00,,,0.00,VWS V14.01,2013-08-13 03:02:00,
2013-08-12 22:07:00,66.4,59.0,30.02,North,356,0.0,0.0,77,0.00,,,0.00,VWS V14.01,2013-08-13 03:07:00,
2013-08-12 22:12:00,66.0,58.6,30.02,North,357,0.0,0.0,77,0.00,,,0.00,VWS V14.01,2013-08-13 03:12:00,
2013-08-12 22:17:00,65.6,58.2,30.02,North,356,0.0,0.0,77,0.00,,,0.00,VWS V14.01,2013-08-13 03:17:00,
2013-08-12 22:22:00,65.3,58.3,30.02,North,356,0.0,0.0,78,0.00,,,0.00,VWS V14.01,2013-08-13 03:22:00,
2013-08-12 22:27:00,65.0,58.3,30.03,North,356,0.0,0.0,79,0.00,,,0.00,VWS V14.01,2013-08-13 03:27:00,
2013-08-12 22:30:00,64.7,58.0,30.03,North,356,0.0,0.0,79,0.00,,,0.00,VWS V14.01,2013-08-13 03:30:00,
2013-08-12 22:32:00,64.6,58.0,30.03,North,356,0.0,0.0,79,0.00,,,0.00,VWS V14.01,2013-08-13 03:32:00,
2013-08-12 22:37:00,64.2,57.6,30.02,North,356,0.0,0.0,79,0.00,,,0.00,VWS V14.01,2013-08-13 03:37:00,
2013-08-12 22:42:00,63.8,57.5,30.03,North,356,0.0,0.0,80,0.00,,,0.00,VWS V14.01,2013-08-13 03:42:00,
2013-08-12 22:47:00,63.5,57.2,30.03,North,356,0.0,0.0,80,0.00,,,0.00,VWS V14.01,2013-08-13 03:47:00,
2013-08-12 22:53:00,63.2,57.3,30.03,North,356,0.0,0.0,81,0.00,,,0.00,VWS V14.01,2013-08-13 03:53:00,
2013-08-12 22:58:00,62.9,57.0,30.03,North,357,0.0,0.0,81,0.00,,,0.00,VWS V14.01,2013-08-13 03:58:00,
2013-08-12 23:00:00,62.7,57.1,30.03,North,356,0.0,0.0,82,0.00,,,0.00,VWS V14.01,2013-08-13 04:00:00,
2013-08-12 23:01:00,62.7,57.1,30.03,North,356,0.0,0.0,82,0.00,,,0.00,VWS V14.01,2013-08-13 04:01:00,
2013-08-12 23:02:00,62.6,57.0,30.03,North,357,0.0,0.0,82,0.00,,,0.00,VWS V14.01,2013-08-13 04:02:00,
2013-08-12 23:03:00,62.6,57.0,30.03,North,357,0.0,0.0,82,0.00,,,0.00,VWS V14.01,2013-08-13 04:03:00,
2013-08-12 23:07:00,62.4,56.8,30.03,North,356,0.0,0.0,82,0.00,,,0.00,VWS V14.01,2013-08-13 04:07:00,
2013-08-12 23:12:00,62.2,56.6,30.03,North,356,0.0,0.0,82,0.00,,,0.00,VWS V14.01,2013-08-13 04:12:00,
2013-08-12 23:17:00,62.0,56.8,30.03,North,357,0.0,0.0,83,0.00,,,0.00,VWS V14.01,2013-08-13 04:17:00,
2013-08-12 23:22:00,61.8,56.6,30.03,North,357,0.0,0.0,83,0.00,,,0.00,VWS V14.01,2013-08-13 04:22:00,
2013-08-12 23:27:00,61.5,56.3,30.03,North,356,0.0,0.0,83,0.00,,,0.00,VWS V14.01,2013-08-13 04:27:00,
2013-08-12 23:30:00,61.4,56.5,30.03,North,356,0.0,0.0,84,0.00,,,0.00,VWS V14.01,2013-08-13 04:30:00,
2013-08-12 23:32:00,61.3,56.4,30.03,North,357,0.0,0.0,84,0.00,,,0.00,VWS V14.01,2013-08-13 04:32:00,
2013-08-12 23:37:00,61.1,55.9,30.04,North,356,0.0,0.0,83,0.00,,,0.00,VWS V14.01,2013-08-13 04:37:00,
2013-08-12 23:42:00,60.8,55.9,30.04,North,357,0.0,0.0,84,0.00,,,0.00,VWS V14.01,2013-08-13 04:42:00,
2013-08-12 23:47:00,60.5,55.7,30.04,North,356,0.0,0.0,84,0.00,,,0.00,VWS V14.01,2013-08-13 04:47:00,
2013-08-12 23:52:00,60.3,55.5,30.04,North,356,0.0,0.0,84,0.00,,,0.00,VWS V14.01,2013-08-13 04:52:00,
2013-08-12 23:57:00,60.1,55.3,30.04,North,356,0.0,0.0,84,0.00,,,0.00,VWS V14.01,2013-08-13 04:57:00,